[[{"header":{"parameterUnit":"m.s-1","parameterCategory":1,"la1":30.2991,"la2":30.254,"lo1":-89.0895,"lo2":-89.0444,"dy":0.0017,"dx":0.0017,"nx":28,"ny":28,"refTime":"2023-04-28T21:00:00:Z","depth":0,"parameterNumber":2,"parameterNumberName":"U-component_of_WINDS"},"data":[0,0,0,0,0,0,0,0,0,0,0,0,0,0,0,0,0,0,0,0,0,0,0,0,0,0,0,0,0,0,0,0,0,0,0,0,0,0,0,0,0,0,0,0,0,0,0,0,0,0,0,0,0,0,0,0,0,0,2.1559,2.1559,0,2.1549,2.1549,2.1549,2.1549,2.1549,2.1549,2.1549,2.1538,2.1537,2.1537,0,0,0,0,0,0,0,0,0,0,0,0,0,2.1578,2.1578,2.1559,2.1559,2.1559,2.1549,2.1549,2.1549,2.1549,2.1549,2.1549,2.1549,2.1538,2.1537,2.1537,0,0,0,0,0,0,0,0,0,0,0,0,0,2.1569,2.1578,2.1559,2.1557,2.1557,2.1549,2.1549,2.1549,2.1549,2.1549,2.1549,2.1549,2.1538,2.1537,2.1537,2.1529,0,0,2.1535,2.1535,0,0,0,0,0,0,0,0,2.157,2.1568,2.1558,2.1557,2.1557,2.155,2.1552,2.1542,2.1548,2.1552,2.1549,2.1549,2.1542,2.1541,2.1538,2.1529,2.1528,2.1535,2.1534,2.1534,2.1534,0,0,0,0,0,0,0,2.157,2.1569,2.1555,2.1558,2.1557,2.1557,2.1556,2.155,2.1546,2.1551,2.1551,2.155,2.1542,2.1539,2.1538,2.1528,2.1535,2.1534,2.1534,2.1534,2.1514,2.1514,0,0,0,0,0,0,2.1571,2.1569,2.1555,2.1555,2.1564,2.1557,2.1556,2.1552,2.1546,2.1545,2.155,2.155,2.154,2.1539,2.1538,2.153,2.1534,2.1534,2.1533,2.1514,2.1514,2.1514,0,0,0,0,0,0,2.1572,2.157,2.1556,2.1562,2.156,2.1556,2.1552,2.1552,2.1549,2.1545,2.1544,2.1548,2.154,2.1539,2.1532,2.1529,2.1533,2.1533,2.1514,2.1514,2.1514,2.1513,0,0,0,0,0,0,2.1572,2.157,2.1567,2.1562,2.156,2.155,2.1552,2.1552,2.1548,2.1549,2.1543,2.1542,2.154,2.1533,2.1531,2.1528,2.1532,2.1514,2.1514,2.1514,2.1513,2.1512,2.1512,0,0,0,0,0,2.1573,2.1566,2.1567,2.1565,2.1556,2.1549,2.1548,2.1546,2.1548,2.1545,2.1543,2.1542,2.153,2.1532,2.153,2.1527,2.1514,2.1514,2.1514,2.1513,2.1512,2.1512,0,0,0,0,0,0,2.157,2.1565,2.1566,2.1557,2.1554,2.1549,2.1545,2.1546,2.1541,2.1541,2.1539,2.1538,2.1531,2.1529,2.1531,2.1521,2.1522,2.1522,2.1523,2.1522,2.1522,2.1522,2.1532,0,0,0,0,0,2.1568,2.1564,2.156,2.1553,2.1551,2.1549,2.1546,2.1545,2.1541,2.154,2.1536,2.1532,2.1528,2.1525,2.152,2.1513,2.1512,2.151,2.151,2.1509,2.1509,2.1506,2.1505,2.1512,2.1512,2.1512,0,0,2.1565,2.1562,2.1559,2.1552,2.1549,2.1545,2.1547,2.1542,2.1539,2.1539,2.1532,2.153,2.1526,2.1519,2.1516,2.1517,2.1507,2.1509,2.1509,2.1508,2.1506,2.1505,2.1504,2.1512,2.1512,2.1512,0,0,2.1556,2.1553,2.1548,2.1545,2.1542,2.154,2.1539,2.1535,2.1534,2.1528,2.1528,2.1525,2.1516,2.1514,2.1512,2.1505,2.1505,2.1504,2.1501,2.1499,2.1498,2.1498,2.1496,2.1496,2.1503,2.1503,2.1503,0,2.1552,2.1545,2.1545,2.154,2.1538,2.1539,2.1534,2.1531,2.1526,2.1525,2.1526,2.1517,2.1514,2.1508,2.1506,2.1504,2.1503,2.1504,2.1498,2.1498,2.1497,2.1496,2.1495,2.1503,2.1503,2.1503,2.1503,0,2.1541,2.1537,2.1533,2.1529,2.1527,2.1522,2.1521,2.1518,2.1519,2.1517,2.1512,2.1509,2.1505,2.1503,2.1503,2.1497,2.1498,2.1499,2.15,2.1497,2.1495,2.1495,2.1503,2.1503,2.1503,2.1503,0,0,2.1529,2.1526,2.1525,2.1524,2.1521,2.1518,2.1514,2.1511,2.1509,2.1506,2.1503,2.1497,2.1499,2.1496,2.1496,2.1493,2.149,2.1495,2.1495,2.1494,2.1485,2.1485,2.1484,2.149,2.149,2.149,2.1486,0,2.152,2.1513,2.1514,2.1507,2.1504,2.1506,2.1503,2.1501,2.15,2.1498,2.1497,2.1493,2.1495,2.1494,2.1492,2.1491,2.1488,2.1491,2.1488,2.1488,2.1489,2.1483,2.1482,2.1478,2.1485,2.1485,2.1485,0,2.1509,2.1507,2.15,2.15,2.1499,2.1496,2.1494,2.1491,2.149,2.149,2.1488,2.1488,2.1485,2.1488,2.1484,2.1486,2.1485,2.1484,2.1484,2.1484,2.1486,2.1483,2.1477,2.1477,2.1484,2.1484,2.1484,0,2.1502,2.1497,2.1493,2.1492,2.1491,2.149,2.1489,2.1488,2.1487,2.1485,2.1484,2.1482,2.1481,2.1479,2.148,2.1481,2.1476,2.1478,2.1476,2.1476,2.1475,2.1475,2.1469,2.1474,2.1474,2.1474,2.1474,0,2.1492,2.1488,2.149,2.1488,2.1484,2.1485,2.1482,2.1481,2.1481,2.1479,2.148,2.1478,2.1479,2.1477,2.1477,2.1475,2.1474,2.1474,2.1474,2.1474,2.1474,2.1473,2.1473,2.1474,2.1474,2.1474,2.1474,0,2.1483,2.1484,2.148,2.148,2.148,2.1478,2.1478,2.1476,2.1477,2.1474,2.1474,2.1474,2.1473,2.1473,2.1471,2.1471,2.1468,2.1468,2.1469,2.1469,2.1467,2.1468,2.146,2.146,2.1465,2.1465,2.1465,0,2.1476,2.1474,2.1475,2.1474,2.1473,2.1472,2.1471,2.1473,2.1472,2.1471,2.147,2.1469,2.1468,2.1465,2.1465,2.1464,2.1465,2.1463,2.1464,2.1465,2.1465,2.1466,2.1466,2.1462,2.1462,2.1462,2.1462,0,2.1466,2.1467,2.1466,2.1466,2.1465,2.1464,2.1464,2.1463,2.1465,2.1464,2.1463,2.1463,2.1462,2.1461,2.146,2.146,2.1461,2.1461,2.1461,2.1461,2.1461,2.1462,2.1468,2.1461,2.1461,2.1461,2.1461,2.1461,2.1458,2.1457,2.1457,2.1457,2.1457,2.1457,2.1456,2.1457,2.1456,2.1456,2.1457,2.1456,2.1457,2.1457,2.1457,2.1456,2.1457,2.1456,2.1456,2.1456,2.1456,2.1462,2.1456,2.1456,2.1456,2.1456,2.1456,0,2.1448,2.1449,2.1449,2.1449,2.1449,2.1451,2.1452,2.1451,2.1451,2.1451,2.1451,2.1451,2.145,2.1452,2.1452,2.1451,2.1452,2.1451,2.1451,2.1451,2.1455,2.1455,2.1451,2.1451,2.1451,2.1451,2.1451,2.1451,2.1443,2.1441,2.1443,2.1441,2.1443,2.1442,2.1442,2.1443,2.1444,2.1443,2.1444,2.1445,2.1446,2.1447,2.1447,2.1447,2.1447,2.1446,2.1447,2.145,2.1451,2.1451,2.1452,2.1446,2.1446,2.1444,2.1444,2.1444]},{"header":{"parameterUnit":"m.s-1","parameterCategory":1,"la1":30.2991,"la2":30.254,"lo1":-89.0895,"lo2":-89.0444,"dy":0.0017,"dx":0.0017,"nx":28,"ny":28,"refTime":"2023-04-28T21:00:00:Z","depth":0,"parameterNumber":3,"parameterNumberName":"V-component_of_WINDS"},"data":[0,0,0,0,0,0,0,0,0,0,0,0,0,0,0,0,0,0,0,0,0,0,0,0,0,0,0,0,0,0,0,0,0,0,0,0,0,0,0,0,0,0,0,0,0,0,0,0,0,0,0,0,0,0,0,0,0,0,-1.995,-1.995,0,-1.9951,-1.9951,-1.9951,-1.9933,-1.9932,-1.9932,-1.9931,-1.993,-1.993,-1.9931,0,0,0,0,0,0,0,0,0,0,0,0,0,-1.993,-1.9931,-1.995,-1.995,-1.995,-1.9951,-1.9951,-1.9951,-1.9933,-1.9932,-1.9932,-1.9931,-1.993,-1.993,-1.9931,0,0,0,0,0,0,0,0,0,0,0,0,0,-1.9936,-1.9931,-1.995,-1.9941,-1.994,-1.9951,-1.9951,-1.9952,-1.9933,-1.9932,-1.9932,-1.9931,-1.993,-1.993,-1.9931,-1.995,0,0,-1.9933,-1.9933,0,0,0,0,0,0,0,0,-1.9936,-1.9937,-1.9942,-1.9942,-1.9941,-1.9941,-1.9944,-1.9951,-1.9933,-1.9936,-1.9931,-1.993,-1.9934,-1.9934,-1.9936,-1.995,-1.995,-1.9933,-1.9933,-1.9934,-1.9934,0,0,0,0,0,0,0,-1.9935,-1.9936,-1.995,-1.9942,-1.9942,-1.9937,-1.9937,-1.9945,-1.9939,-1.9935,-1.9934,-1.9935,-1.9934,-1.9936,-1.9936,-1.995,-1.9933,-1.9934,-1.9934,-1.9934,-1.9982,-1.9983,0,0,0,0,0,0,-1.9936,-1.9936,-1.995,-1.9951,-1.9936,-1.9938,-1.9938,-1.9942,-1.9939,-1.9938,-1.9935,-1.9934,-1.9935,-1.9935,-1.9936,-1.996,-1.9934,-1.9934,-1.9935,-1.9981,-1.9982,-1.9983,0,0,0,0,0,0,-1.9936,-1.9938,-1.995,-1.9943,-1.9944,-1.9939,-1.9944,-1.9942,-1.9944,-1.9939,-1.9937,-1.9939,-1.9934,-1.9935,-1.9947,-1.9959,-1.9935,-1.9935,-1.998,-1.9981,-1.9982,-2.0007,0,0,0,0,0,0,-1.9935,-1.9938,-1.9945,-1.9943,-1.9945,-1.9962,-1.9944,-1.9943,-1.9946,-1.9944,-1.9942,-1.9941,-1.9934,-1.9947,-1.9948,-1.996,-1.9936,-1.9979,-1.998,-1.9982,-2.0005,-2.0009,-2.0012,0,0,0,0,0,-1.9935,-1.995,-1.9945,-1.9947,-1.9954,-1.9963,-1.9964,-1.9956,-1.9947,-1.9954,-1.9951,-1.9941,-1.9958,-1.9948,-1.995,-1.9962,-1.9978,-1.998,-1.9982,-2.0003,-2.0008,-2.0012,0,0,0,0,0,0,-1.9952,-1.995,-1.9944,-1.996,-1.9962,-1.996,-1.9969,-1.9961,-1.9965,-1.9963,-1.9953,-1.9953,-1.9967,-1.9965,-1.9954,-1.9981,-1.9966,-1.9969,-1.9982,-1.9986,-1.999,-1.999,-1.9936,0,0,0,0,0,-1.9958,-1.9966,-1.9964,-1.9978,-1.9979,-1.9974,-1.9978,-1.9972,-1.9973,-1.9974,-1.9971,-1.9972,-1.9978,-1.9982,-1.9987,-2.0004,-2.0004,-2.0014,-2.0017,-2.002,-2.0022,-2.0034,-2.0038,-1.9989,-1.9989,-1.9989,0,0,-1.997,-1.997,-1.9975,-1.9981,-1.9982,-1.9991,-1.9975,-1.9984,-1.999,-1.9975,-1.9987,-1.9985,-1.9986,-2.0002,-2.0008,-2.0001,-2.0036,-2.0023,-2.0025,-2.0026,-2.0036,-2.0041,-2.0045,-1.9991,-1.999,-1.999,0,0,-1.9996,-1.9996,-2.0009,-2.0011,-2.0013,-2.001,-2.0013,-2.0013,-2.0012,-2.0024,-2.0013,-2.002,-2.003,-2.0032,-2.0034,-2.0063,-2.0054,-2.0065,-2.0084,-2.0095,-2.0099,-2.0102,-2.0114,-2.0118,-2.0067,-2.0067,-2.0067,0,-2.001,-2.0023,-2.0016,-2.0028,-2.0031,-2.0019,-2.0033,-2.0034,-2.0037,-2.004,-2.0032,-2.0046,-2.0045,-2.0062,-2.0069,-2.0071,-2.0075,-2.0065,-2.0099,-2.0102,-2.0105,-2.0116,-2.0121,-2.0068,-2.0068,-2.0068,-2.0068,0,-2.0041,-2.0051,-2.0061,-2.0067,-2.0071,-2.0083,-2.0078,-2.0084,-2.0079,-2.0077,-2.009,-2.0089,-2.0095,-2.0098,-2.0092,-2.0115,-2.011,-2.0101,-2.0085,-2.0111,-2.0122,-2.0126,-2.007,-2.007,-2.007,-2.0069,0,0,-2.0077,-2.0081,-2.0085,-2.0088,-2.0091,-2.0098,-2.011,-2.0117,-2.0122,-2.0125,-2.0135,-2.0145,-2.0137,-2.0139,-2.0133,-2.0143,-2.0169,-2.0132,-2.0132,-2.014,-2.0196,-2.0204,-2.0209,-2.0163,-2.0164,-2.0164,-2.0196,0,-2.0104,-2.0126,-2.0121,-2.0142,-2.0152,-2.0142,-2.0152,-2.0155,-2.0154,-2.0161,-2.0159,-2.0167,-2.0155,-2.0157,-2.0166,-2.0164,-2.018,-2.0161,-2.0173,-2.0173,-2.0174,-2.0214,-2.0223,-2.0253,-2.02,-2.0201,-2.0201,0,-2.0138,-2.0145,-2.0167,-2.0171,-2.0174,-2.0184,-2.0191,-2.0199,-2.0202,-2.02,-2.0205,-2.0197,-2.021,-2.0195,-2.0212,-2.0199,-2.0204,-2.0204,-2.0205,-2.0206,-2.0189,-2.0218,-2.0262,-2.0267,-2.0207,-2.0207,-2.0206,0,-2.0164,-2.0178,-2.0194,-2.0197,-2.0201,-2.0208,-2.021,-2.0213,-2.0218,-2.0224,-2.0228,-2.0234,-2.0238,-2.0244,-2.0239,-2.0228,-2.0258,-2.0241,-2.0257,-2.0257,-2.0264,-2.0264,-2.0311,-2.0265,-2.0265,-2.0265,-2.0265,0,-2.0195,-2.0209,-2.0206,-2.0216,-2.0233,-2.0228,-2.0244,-2.0244,-2.0247,-2.0257,-2.0248,-2.0258,-2.025,-2.0259,-2.0255,-2.0272,-2.0273,-2.0272,-2.0271,-2.0274,-2.0274,-2.0277,-2.0275,-2.0266,-2.0266,-2.0266,-2.0266,0,-2.0226,-2.0225,-2.0242,-2.0245,-2.0246,-2.0259,-2.0261,-2.0271,-2.0269,-2.0282,-2.0285,-2.0283,-2.0293,-2.0289,-2.0299,-2.0297,-2.0318,-2.0313,-2.0317,-2.0316,-2.0333,-2.0332,-2.0384,-2.0391,-2.034,-2.0341,-2.0341,0,-2.0247,-2.0258,-2.0263,-2.027,-2.0273,-2.0284,-2.029,-2.0285,-2.0292,-2.0298,-2.0307,-2.0317,-2.0325,-2.0342,-2.0341,-2.0349,-2.0345,-2.0363,-2.0347,-2.035,-2.0347,-2.0347,-2.0349,-2.0367,-2.0367,-2.0368,-2.0368,0,-2.0283,-2.0283,-2.0292,-2.0302,-2.031,-2.0317,-2.0323,-2.0329,-2.0326,-2.0333,-2.0345,-2.0351,-2.0363,-2.0373,-2.0381,-2.0383,-2.0375,-2.0374,-2.0378,-2.0381,-2.0383,-2.0384,-2.0327,-2.0372,-2.0372,-2.0372,-2.0371,-2.0371,-2.0311,-2.0321,-2.0328,-2.0339,-2.0344,-2.0351,-2.036,-2.0361,-2.0371,-2.0382,-2.0378,-2.0392,-2.0396,-2.0407,-2.0409,-2.042,-2.0413,-2.0419,-2.042,-2.0422,-2.0425,-2.0381,-2.0421,-2.0421,-2.0421,-2.0421,-2.0421,0,-2.0348,-2.0352,-2.0363,-2.0373,-2.0383,-2.0376,-2.0383,-2.0392,-2.0404,-2.041,-2.0418,-2.0432,-2.0443,-2.0444,-2.0454,-2.0462,-2.0459,-2.0465,-2.0465,-2.0466,-2.043,-2.0426,-2.0467,-2.0467,-2.0467,-2.0467,-2.0467,-2.0467,-2.0369,-2.0387,-2.0388,-2.0409,-2.0412,-2.0427,-2.0432,-2.0438,-2.0443,-2.046,-2.0469,-2.047,-2.0474,-2.0485,-2.0494,-2.0494,-2.0499,-2.0507,-2.0505,-2.0472,-2.0468,-2.0463,-2.046,-2.0507,-2.0507,-2.054,-2.054,-2.0541]}]]